sat.trackr.live / text

‹ back to catalog

STARLINK-3978

NORAD 52635 · 2022-052AP

PAYLOAD ACTIVE UNKNOWN

§ Identity

Operator
Country
US
Launch date
2022-05-14
Launch site
AFETR
Launch vehicle
Mass (kg)
RCS (m²)

Purposes: comms

External: N2YO · Heavens-Above · Gunter

§ Orbital elements

Epoch: 2026-09-20T01:52:04.007424Z

Period
94.01 min
Inclination
53.1594°
Eccentricity
0.0001316
Mean motion
15.31712643 rev/d
Perigee alt
469.8 km
Apogee alt
471.6 km
Semi-major
6,848.8 km
B*
-2.3718e-5
RAAN
93.0297°
Arg perigee
79.1762°
Mean anomaly
280.9388°
Rev number
24,066

§ Raw data

STARLINK-39781 52635U 22052AP  26263.07782416 -.00001101  00000+0 -23718-4 0  99952 52635  53.1594  93.0297 0001316  79.1762 280.9388 15.31712643240662

JSON: /api/v1/satellites/52635 · /tle

For live sub-satellite position, see the globe view (requires WebGL).

§ Visibility from observer

Set your observer location to see the next 7 days of passes ≥ 10°. The values pass through the URL so the page stays shareable.

No JS? Fill the form by hand. The geolocation button needs JavaScript.